Content
SEND FEEDBACK

Daily
Averages
Monthly
Summary
United States of America

EARTH CITY, MISSOURI


Home > North America > United States > Missouri
Elevation: 476 feet     Latitude: 38 46N     Longitude: 090 30W

WEATHER
 
SELECT A DAY
Number of Records: 203,439;   Date Range: 1/1/95 - 7/29/14
 
SHARE

PRINT THIS DATA

[ ← Previous Day ]
WEATHER ALMANAC - FEBRUARY 10, 2013
[ Next Day → ]
[ °C ]   °F
Weather ElementAverageHighLow
Temperature48.6 °F55.9 °F (4:51 pm)39.9 °F (1:51 am)
Dewpoint41.4 °F51.8 °F (4:25 pm)28 °F (9:51 pm)
Humidity77.7 %88 % (2:33 pm)38 % (8:51 pm)
Barometer29.73 in29.97 in (1:51 am)29.60 in (2:33 pm)
Wind Speed18 mph28.8 mph (11:51 pm)
Wind Gust43.7 mph (10:51 pm)
Weather ElementAverage
Visibility7.4 mi
Wind DirectionSSE (168.3 °)

Weather ElementTotal
Precipitation0.95 in
Heating Degree Days17.1 (Base 65)
Averaged from 42 records on February 10, 2013
WEATHER CONDITIONS BREAKOUT
WIND DIRECTION BREAKOUT
WEATHER BY HOUR - FEBRUARY 10, 2013
[ °C ]   °F
Local TimeTemperatureDewpointHumidityBarometerVisibilityWind DirectionWind SpeedGust SpeedPrecipitationEventsConditions
1:51 AM39.9 °F36.0 °F86 %29.97 in5.0 miSE (140°)17.3 mph0.05 inRainLight Rain
2:51 AM41.0 °F36.0 °F82 %29.95 in9.0 miSSE (150°)13.8 mph0.02 inRainLight Rain
3:51 AM41.0 °F36.0 °F82 %29.91 in7.0 miSE (130°)17.3 mph0.02 inRainLight Rain
4:51 AM42.1 °F37.0 °F82 %29.87 in8.0 miESE (120°)12.7 mph0.00 inOvercast
5:44 AM42.8 °F37.4 °F81 %29.85 in9.0 miSE (140°)12.7 mph0.02 inRainLight Rain
5:51 AM44.1 °F37.0 °F76 %29.86 in9.0 miSE (140°)13.8 mph19.6 mph0.02 inRainLight Rain
6:51 AM45.0 °F37.9 °F76 %29.82 in9.0 miSSE (150°)20.7 mph0.01 inOvercast
7:15 AM44.6 °F39.2 °F81 %29.80 in9.0 miSSE (150°)23.0 mph28.8 mphOvercast
7:45 AM44.6 °F39.2 °F81 %29.80 in6.0 miSSE (160°)21.9 mph31.1 mph0.00 inRain-ThunderstormLight Thunderstorms and Rain
7:51 AM45.0 °F39.0 °F80 %29.82 in4.0 miSSE (160°)21.9 mph28.8 mph0.01 inRain-ThunderstormThunderstorms and Rain
8:13 AM44.6 °F39.2 °F81 %29.81 in5.0 miSSE (160°)17.3 mph25.3 mph0.04 inRain-ThunderstormLight Thunderstorms and Rain
8:26 AM44.6 °F39.2 °F81 %29.80 in4.0 miSSE (150°)20.7 mph26.5 mph0.06 inRain-ThunderstormThunderstorms and Rain
8:41 AM44.6 °F39.2 °F81 %29.79 in3.0 miSSE (160°)18.4 mph27.6 mph0.13 inRain-ThunderstormThunderstorms and Rain
8:49 AM44.6 °F39.2 °F81 %29.78 in3.0 miSSE (150°)19.6 mph27.6 mph0.16 inRainRain
8:51 AM45.0 °F41.0 °F86 %29.79 in3.0 miSSE (150°)18.4 mph27.6 mph0.17 inRainRain
9:36 AM46.4 °F42.8 °F87 %29.75 in5.0 miSSE (150°)26.5 mph33.4 mph0.09 inRainLight Rain
9:51 AM46.0 °F42.1 °F86 %29.73 in7.0 miSSE (150°)24.2 mph29.9 mph0.09 inRainLight Rain
10:24 AM46.4 °F42.8 °F87 %29.71 in4.0 miSSE (150°)23.0 mph35.7 mph0.01 inRainLight Rain
10:33 AM48.2 °F44.6 °F87 %29.68 in6.0 miSSE (150°)26.5 mph39.1 mph0.02 inRainLight Rain
10:51 AM48.9 °F44.1 °F83 %29.69 in10.0 miSSE (150°)25.3 mph39.1 mph0.03 inOvercast
11:42 AM51.8 °F44.6 °F76 %29.68 in10.0 miSSE (160°)21.9 mph31.1 mphOvercast
11:51 AM51.1 °F45.0 °F80 %29.68 in10.0 miSSE (160°)19.6 mph25.3 mphOvercast
12:16 PM50.0 °F44.6 °F82 %29.65 in10.0 miSSE (160°)20.7 mph29.9 mphOvercast
12:31 PM50.0 °F44.6 °F82 %29.63 in10.0 miSSE (150°)21.9 mph28.8 mphOvercast
12:51 PM50.0 °F45.0 °F83 %29.63 in10.0 miSouth (170°)12.7 mph24.2 mphOvercast
1:05 PM50.0 °F44.6 °F82 %29.62 in10.0 miSouth (170°)10.4 mph21.9 mphOvercast
1:49 PM51.8 °F46.4 °F82 %29.62 in3.0 miSouth (180°)12.7 mph20.7 mphOvercast
1:51 PM51.1 °F46.9 °F86 %29.63 in3.0 miSouth (180°)12.7 mph20.7 mphOvercast
1:58 PM51.8 °F46.4 °F82 %29.61 in2.5 miSouth (170°)15.0 mph0.00 inLight Drizzle
2:33 PM51.8 °F48.2 °F88 %29.60 in3.0 miSouth (170°)13.8 mph18.4 mph0.00 inOvercast
2:39 PM51.8 °F48.2 °F88 %29.60 in5.0 miSouth (170°)11.5 mph0.00 inOvercast
2:51 PM53.1 °F48.9 °F86 %29.61 in9.0 miSouth (170°)13.8 mph0.00 inOvercast
3:51 PM55.0 °F50.0 °F83 %29.61 in10.0 miSouth (180°)15.0 mphMostly Cloudy
4:25 PM55.4 °F51.8 °F88 %29.61 in10.0 miSouth (180°)12.7 mph19.6 mphMostly Cloudy
4:51 PM55.9 °F51.1 °F84 %29.62 in10.0 miSSE (160°)11.5 mphScattered Clouds
5:51 PM55.9 °F50.0 °F80 %29.64 in10.0 miSouth (180°)12.7 mphScattered Clouds
6:51 PM55.0 °F48.9 °F80 %29.66 in10.0 miSSW (200°)11.5 mphPartly Cloudy
7:51 PM55.0 °F30.9 °F40 %29.68 in10.0 miSW (220°)19.6 mph28.8 mphPartly Cloudy
8:51 PM54.0 °F28.9 °F38 %29.70 in10.0 miSW (230°)17.3 mph23.0 mphPartly Cloudy
9:51 PM53.1 °F28.0 °F38 %29.71 in10.0 miWSW (240°)19.6 mph32.2 mphClear
10:51 PM52.0 °F28.0 °F40 %29.73 in10.0 miWSW (250°)24.2 mph43.7 mphClear
11:51 PM48.0 °F30.0 °F50 %29.78 in10.0 miWest (260°)28.8 mph35.7 mphPartly Cloudy
Hourly data recorded from KSTL, located miles away from Earth City, Missouri







STORIES FROM OUR PARTNERS